Location: Newark
(34.5992°S, 58.3747°W)
Time: 18:43:34
(UTC+00:00)

STARLINK 1058 - Pass Details

Date: 10 December 2019
Orbit: 548 x 551 km, 53.0° (Epoch: 18 January)

Event Time Altitude Azimuth Distance (km) Brightness Sun altitude
Rises 23:18:42 0° 243° (WSW) 2,743 10.0 -4.3°
Reaches altitude 10° 23:21:33 10° 263° (W) 1,838 7.5 -4.8°
Maximum altitude 23:24:19 17° 304° (NW) 1,426 6.0 -5.3°
Drops below altitude 10° 23:27:02 10° 346° (NNW) 1,820 6.1 -5.8°
Sets 23:29:51 0° 6° (N) 2,703 6.8 -6.3°
